User: anonymous   Login
Location: Unspecified
(0.0000°N, 0.0000°E)
Time: 18:53:58
(UTC+00:00)
Language:

LITUANICASAT 2 - Orbit

View from above orbital plane
View from above orbital plane
View from above satellite
View from above satellite

Ground track
Ground track

The orbit data is extracted from the following two-line orbital elements,

1 42768U 17036D   19077.11457262 +.00002454 +00000-0 +10894-3 0  9996
2 42768 097.3664 136.6224 0015485 179.1764 180.9501 15.22396590096221
Epoch (UTC): 18 March 2019 02:44:59
Eccentricity: 0.0015485
inclination: 97.3664°
perigee height: 488 km
apogee height: 509 km
right ascension of ascending node: 136.6224°
argument of perigee: 179.1764°
revolutions per day: 15.22396590
mean anomaly at epoch: 180.9501°
orbit number at epoch: 9622

The dashed part of the orbit path shows where the satellite is in the earth's shadow,  

DLR